Mattoon, IL

2:05 AM CST on January 23, 2017 (GMT -0600)
Coles County Memorial

Weather History for KMTO - December, 2013

Change the Weather History Date:

Wednesday, December 25, 2013

  Actual Average Record
Temperature  
Mean Temperature 26 °F 29 °F  
Max Temperature 32 °F 36 °F 54 °F (1971)
Min Temperature 20 °F 22 °F -14 °F (1983)
Degree Days  
Heating Degree Days 39 36  
Month to date heating degree days 913 825  
Since 1 July heating degree days 2030 1884  
Cooling Degree Days 0 0  
Month to date cooling degree days 0 0  
Year to date cooling degree days 1007 1057  
Moisture  
Dew Point 20 °F    
Average Humidity 74    
Maximum Humidity 85    
Minimum Humidity 62    
Precipitation  
Precipitation 0.00 in 0.11 in 0.76 in (1951)
Month to date precipitation 1.59 2.16  
Year to date precipitation 42.35 37.44  
Sea Level Pressure  
Sea Level Pressure 30.29 in    
Wind  
Wind Speed 11 mph (SSW)    
Max Wind Speed 18 mph    
Max Gust Speed 25 mph    
Visibility 10 miles    
Events      
T = Trace of Precipitation, MM = Missing Value Source: NWS Daily Summary

Daily Weather History Graph

Daily Weather History Graph

Search for Another Location

Airport or City:

Trip Planner

Search our weather history database for the weather conditions in past years. The results will help you decide how hot, cold, wet, or windy it might be!

Date:

Astronomy

Dec. 25, 2013 Rise Set
Actual Time 7:11 AM CST 4:35 PM CST
Civil Twilight 6:41 AM CST 5:05 PM CST
Nautical Twilight 6:07 AM CST 5:39 PM CST
Astronomical Twilight 5:34 AM CST 6:11 PM CST
Moon No Moon Rise 11:37 AM CST (12/25)
Length of Visible Light 10h 23m
Length of Day
9h 23m
Waning Gibbous, 48% of the Moon is Illuminated
Dec 25
Waning Gibbous
Jan 1
New
Jan 7
First Quarter
Jan 15
Full
Jan 23
Last Quarter

Hourly Weather History & Observations

Time (CST) Temp. Windchill Dew Point Humidity Pressure Visibility Wind Dir Wind Speed Gust Speed Precip Events Conditions
12:53 AM 19.9 °F 8.6 °F 12.0 °F 71% 30.39 in 10.0 mi South 10.4 mph 19.6 mph N/A   Overcast
1:53 AM 21.0 °F 9.3 °F 12.0 °F 68% 30.40 in 10.0 mi South 11.5 mph - N/A   Overcast
2:53 AM 21.9 °F 9.8 °F 12.0 °F 66% 30.39 in 10.0 mi South 12.7 mph - N/A   Overcast
3:53 AM 21.9 °F 9.2 °F 12.0 °F 66% 30.36 in 10.0 mi South 13.8 mph - N/A   Overcast
4:53 AM 23.0 °F 11.7 °F 12.9 °F 65% 30.33 in 10.0 mi South 11.5 mph - N/A   Overcast
5:53 AM 23.0 °F 10.6 °F 14.0 °F 68% 30.33 in 10.0 mi South 13.8 mph - N/A   Overcast
6:53 AM 24.1 °F 13.1 °F 14.0 °F 65% 30.34 in 10.0 mi South 11.5 mph - N/A   Overcast
7:08 AM 24.1 °F 13.1 °F 14.0 °F 65% 30.30 in 10.0 mi South 11.5 mph - N/A   Overcast
7:53 AM 24.1 °F 13.1 °F 15.1 °F 69% 30.34 in 10.0 mi South 11.5 mph - N/A   Overcast
8:53 AM 25.0 °F 13.6 °F 16.0 °F 69% 30.33 in 10.0 mi South 12.7 mph - N/A   Overcast
9:53 AM 26.1 °F 16.2 °F 17.1 °F 69% 30.33 in 10.0 mi SSW 10.4 mph - N/A   Overcast
10:53 AM 27.0 °F 18.0 °F 18.0 °F 69% 30.32 in 10.0 mi SW 9.2 mph - N/A   Overcast
11:53 AM 28.9 °F 21.1 °F 19.0 °F 67% 30.28 in 10.0 mi SW 8.1 mph - N/A   Overcast
12:53 PM 28.9 °F 21.1 °F 19.9 °F 69% 30.26 in 10.0 mi SW 8.1 mph - N/A   Overcast
1:53 PM 30.0 °F 23.2 °F 21.0 °F 69% 30.24 in 10.0 mi SSW 6.9 mph - N/A   Overcast
2:53 PM 30.0 °F 23.2 °F 21.9 °F 72% 30.24 in 10.0 mi SSW 6.9 mph - N/A   Overcast
3:53 PM 30.0 °F 22.4 °F 23.0 °F 75% 30.24 in 10.0 mi SSW 8.1 mph - N/A   Overcast
4:53 PM 30.0 °F 23.2 °F 24.1 °F 79% 30.24 in 10.0 mi SSW 6.9 mph - N/A   Overcast
5:53 PM 30.0 °F 22.4 °F 24.1 °F 79% 30.24 in 10.0 mi SSW 8.1 mph - N/A   Overcast
6:53 PM 30.9 °F 23.5 °F 25.0 °F 79% 30.24 in 10.0 mi SW 8.1 mph - N/A   Overcast
7:53 PM 30.9 °F 23.5 °F 26.1 °F 82% 30.24 in 10.0 mi SW 8.1 mph - N/A   Overcast
8:53 PM 32.0 °F 22.5 °F 28.0 °F 85% 30.24 in 9.0 mi West 12.7 mph 23.0 mph N/A   Overcast
9:53 PM 32.0 °F 20.1 °F 28.0 °F 85% 30.24 in 8.0 mi West 19.6 mph 24.2 mph N/A   Overcast
10:18 PM 32.0 °F 22.1 °F 27.0 °F 82% 30.21 in 9.0 mi West 13.8 mph 20.7 mph N/A   Overcast
10:53 PM 32.0 °F 23.6 °F 27.0 °F 82% 30.24 in 9.0 mi West 10.4 mph - N/A   Overcast
11:53 PM 32.0 °F 22.5 °F 27.0 °F 82% 30.24 in 10.0 mi West 12.7 mph - N/A   Overcast